When you browse on this site, cookies collect data to enhance your experience and personalize the content and advertising you see.
Visit our Privacy Policy to learn more. By continuing to use the site, you agree to this use of cookies and data.
  • Em Portugal
  • Lista de países
  • Para 7 dias
  • Temperatura da água
  • Mapas de satélite
  • Mapa do tempo
  • Widgets de tempo
  • user-avatar
    Iniciar Sessão

    Previsão horária em Sapporo

    Hoje, 22 Janeiro, Terça-feira

    Tempo Temperatura Precipitação Vento Pressão Humidade
    00:00 -10°C° 0.1 mm 3 m/s 750 mmHg 84%
    01:00 -10°C° 0.1 mm 3 m/s 750 mmHg 85%
    02:00 -10°C° 0.1 mm 3 m/s 750 mmHg 85%
    03:00 -9°C° 0 mm 2 m/s 750 mmHg 87%
    04:00 -8°C° 0.1 mm 2 m/s 750 mmHg 87%
    05:00 -8°C° 0.1 mm 2 m/s 750 mmHg 87%
    06:00 -9°C° 0.1 mm 3 m/s 750 mmHg 88%
    07:00 -8°C° 0.1 mm 3 m/s 751 mmHg 86%
    08:00 -8°C° 0.1 mm 3 m/s 751 mmHg 84%
    09:00 -7°C° 0.1 mm 3 m/s 751 mmHg 83%
    10:00 -6°C° 0.1 mm 3 m/s 751 mmHg 80%
    11:00 -7°C° 0.1 mm 4 m/s 751 mmHg 77%
    12:00 -5°C° 0.1 mm 4 m/s 752 mmHg 74%
    13:00 -5°C° 0 mm 4 m/s 752 mmHg 75%
    14:00 -5°C° 0 mm 4 m/s 752 mmHg 76%
    15:00 -6°C° 0 mm 3 m/s 752 mmHg 77%
    16:00 -7°C° 0 mm 3 m/s 753 mmHg 79%
    17:00 -8°C° 0 mm 3 m/s 753 mmHg 82%
    18:00 -8°C° 0 mm 2 m/s 754 mmHg 84%
    19:00 -8°C° 0 mm 2 m/s 754 mmHg 84%
    20:00 -9°C° 0 mm 2 m/s 754 mmHg 85%
    21:00 -9°C° 0 mm 2 m/s 755 mmHg 86%
    22:00 -9°C° 0 mm 2 m/s 755 mmHg 86%
    23:00 -9°C° 0 mm 2 m/s 755 mmHg 87%

    Amanhã, 23 Janeiro, Quarta-feira

    Tempo Temperatura Precipitação Vento Pressão Humidade
    00:00 -10°C° 0 mm 2 m/s 755 mmHg 88%
    01:00 -10°C° 0 mm 2 m/s 755 mmHg 87%
    02:00 -10°C° 0 mm 2 m/s 755 mmHg 87%
    03:00 -10°C° 0 mm 2 m/s 755 mmHg 87%
    04:00 -10°C° 0 mm 2 m/s 754 mmHg 87%
    05:00 -10°C° 0 mm 2 m/s 754 mmHg 87%
    06:00 -9°C° 0 mm 2 m/s 754 mmHg 87%
    07:00 -9°C° 0.1 mm 3 m/s 754 mmHg 87%
    08:00 -8°C° 0.1 mm 3 m/s 753 mmHg 88%
    09:00 -7°C° 0.1 mm 4 m/s 753 mmHg 89%
    10:00 -5°C° 0.3 mm 4 m/s 752 mmHg 89%
    11:00 -4°C° 0.3 mm 5 m/s 751 mmHg 89%
    12:00 -3°C° 0.3 mm 6 m/s 749 mmHg 90%
    13:00 -3°C° 1.3 mm 6 m/s 749 mmHg 90%
    14:00 -3°C° 1.3 mm 7 m/s 748 mmHg 91%
    15:00 -3°C° 1.3 mm 7 m/s 747 mmHg 91%
    16:00 -3°C° 2.5 mm 6 m/s 746 mmHg 92%
    17:00 -2°C° 2.5 mm 5 m/s 746 mmHg 92%
    18:00 -1°C° 2.5 mm 4 m/s 746 mmHg 93%
    19:00 -3°C° 0.5 mm 4 m/s 746 mmHg 89%
    20:00 -5°C° 0.5 mm 5 m/s 745 mmHg 85%
    21:00 -6°C° 0.5 mm 5 m/s 745 mmHg 82%
    22:00 -7°C° 0.1 mm 5 m/s 745 mmHg 83%
    23:00 -7°C° 0.1 mm 5 m/s 745 mmHg 85%

    Depois de amanhã, 24 Janeiro, Quinta-feira

    Tempo Temperatura Precipitação Vento Pressão Humidade
    00:00 -8°C° 0.1 mm 5 m/s 745 mmHg 86%
    01:00 -8°C° 0.1 mm 5 m/s 745 mmHg 85%
    02:00 -8°C° 0.1 mm 5 m/s 745 mmHg 83%
    03:00 -8°C° 0.1 mm 5 m/s 745 mmHg 81%
    04:00 -9°C° 0 mm 4 m/s 744 mmHg 82%
    05:00 -9°C° 0 mm 3 m/s 744 mmHg 82%
    06:00 -9°C° 0 mm 2 m/s 744 mmHg 83%
    07:00 -8°C° 0 mm 2 m/s 744 mmHg 83%
    08:00 -7°C° 0 mm 2 m/s 745 mmHg 84%
    09:00 -6°C° 0 mm 2 m/s 745 mmHg 85%
    10:00 -7°C° 0.2 mm 4 m/s 746 mmHg 84%
    11:00 -6°C° 0.2 mm 6 m/s 747 mmHg 84%
    12:00 -5°C° 0.2 mm 8 m/s 748 mmHg 83%
    13:00 -6°C° 0.2 mm 8 m/s 749 mmHg 83%
    14:00 -6°C° 0.2 mm 7 m/s 750 mmHg 83%
    15:00 -7°C° 0.2 mm 7 m/s 752 mmHg 83%
    16:00 -7°C° 0.1 mm 7 m/s 753 mmHg 83%
    17:00 -8°C° 0.1 mm 6 m/s 754 mmHg 83%
    18:00 -8°C° 0.1 mm 6 m/s 755 mmHg 83%
    19:00 -7°C° 0.1 mm 5 m/s 755 mmHg 84%
    20:00 -8°C° 0.1 mm 4 m/s 756 mmHg 85%
    21:00 -8°C° 0.1 mm 4 m/s 756 mmHg 86%
    22:00 -8°C° 0.1 mm 4 m/s 757 mmHg 87%
    23:00 -7°C° 0.1 mm 3 m/s 757 mmHg 88%

    25 Janeiro, Sexta-feira

    Tempo Temperatura Precipitação Vento Pressão Humidade
    00:00 -8°C° 0.1 mm 3 m/s 757 mmHg 89%
    01:00 -8°C° 0.1 mm 3 m/s 757 mmHg 88%
    02:00 -8°C° 0.1 mm 3 m/s 757 mmHg 88%
    03:00 -8°C° 0.1 mm 3 m/s 757 mmHg 88%
    04:00 -8°C° 0.1 mm 3 m/s 757 mmHg 89%
    05:00 -8°C° 0.1 mm 3 m/s 757 mmHg 89%
    06:00 -8°C° 0.1 mm 3 m/s 757 mmHg 90%
    07:00 -7°C° 0.2 mm 3 m/s 757 mmHg 90%
    08:00 -6°C° 0.2 mm 3 m/s 758 mmHg 90%
    09:00 -5°C° 0.2 mm 3 m/s 758 mmHg 90%
    10:00 -4°C° 0.3 mm 3 m/s 758 mmHg 89%
    11:00 -4°C° 0.3 mm 3 m/s 758 mmHg 89%
    12:00 -2°C° 0.3 mm 3 m/s 758 mmHg 89%
    13:00 -2°C° 0.2 mm 3 m/s 757 mmHg 88%
    14:00 -2°C° 0.2 mm 3 m/s 757 mmHg 88%
    15:00 -2°C° 0.2 mm 3 m/s 757 mmHg 87%
    16:00 -4°C° 0.1 mm 3 m/s 757 mmHg 88%
    17:00 -5°C° 0.1 mm 2 m/s 758 mmHg 88%
    18:00 -6°C° 0.1 mm 2 m/s 758 mmHg 88%
    19:00 -4°C° 0.1 mm 1 m/s 758 mmHg 89%
    20:00 -6°C° 0.1 mm 1 m/s 758 mmHg 89%
    21:00 -7°C° 0.1 mm 1 m/s 758 mmHg 89%
    22:00 -8°C° 0 mm 1 m/s 758 mmHg 90%
    23:00 -8°C° 0 mm 1 m/s 758 mmHg 90%

    26 Janeiro, Sábado

    Tempo Temperatura Precipitação Vento Pressão Humidade
    00:00 -9°C° 0 mm 1 m/s 758 mmHg 90%
    01:00 -9°C° 0 mm 1 m/s 758 mmHg 90%
    02:00 -10°C° 0 mm 1 m/s 758 mmHg 90%
    03:00 -10°C° 0 mm 1 m/s 757 mmHg 91%
    04:00 -11°C° 0 mm 1 m/s 757 mmHg 90%
    05:00 -11°C° 0 mm 1 m/s 757 mmHg 89%
    06:00 -11°C° 0 mm 1 m/s 757 mmHg 89%
    07:00 -10°C° 0 mm 1 m/s 758 mmHg 88%
    08:00 -8°C° 0 mm 1 m/s 758 mmHg 87%
    09:00 -7°C° 0 mm 1 m/s 758 mmHg 85%
    10:00 -6°C° 0 mm 1 m/s 757 mmHg 84%
    11:00 -4°C° 0 mm 1 m/s 757 mmHg 83%
    12:00 -2°C° 0 mm 1 m/s 757 mmHg 81%
    13:00 -4°C° 0 mm 2 m/s 757 mmHg 83%
    14:00 -4°C° 0 mm 2 m/s 757 mmHg 84%
    15:00 -4°C° 0 mm 2 m/s 757 mmHg 86%
    16:00 -5°C° 0.1 mm 2 m/s 757 mmHg 87%
    17:00 -6°C° 0.1 mm 2 m/s 757 mmHg 88%
    18:00 -7°C° 0.1 mm 2 m/s 758 mmHg 89%
    19:00 -8°C° 0.1 mm 2 m/s 758 mmHg 89%
    20:00 -8°C° 0.1 mm 2 m/s 758 mmHg 89%
    21:00 -8°C° 0.1 mm 2 m/s 759 mmHg 89%
    22:00 -9°C° 0 mm 2 m/s 759 mmHg 89%
    23:00 -9°C° 0 mm 2 m/s 759 mmHg 89%

    27 Janeiro, Domingo

    Tempo Temperatura Precipitação Vento Pressão Humidade
    00:00 -9°C° 0 mm 2 m/s 759 mmHg 90%
    01:00 -9°C° 0 mm 2 m/s 758 mmHg 90%
    02:00 -10°C° 0 mm 2 m/s 758 mmHg 90%
    03:00 -10°C° 0 mm 2 m/s 758 mmHg 91%
    04:00 -10°C° 0 mm 2 m/s 758 mmHg 91%
    05:00 -10°C° 0 mm 2 m/s 758 mmHg 90%
    06:00 -10°C° 0 mm 2 m/s 759 mmHg 90%
    07:00 -9°C° 0 mm 1 m/s 759 mmHg 89%
    08:00 -8°C° 0 mm 1 m/s 759 mmHg 88%
    09:00 -7°C° 0 mm 1 m/s 760 mmHg 88%
    10:00 -6°C° 0 mm 1 m/s 759 mmHg 86%
    11:00 -4°C° 0 mm 1 m/s 759 mmHg 85%
    12:00 -2°C° 0 mm 1 m/s 759 mmHg 83%
    13:00 -2°C° 0 mm 1 m/s 759 mmHg 84%
    14:00 -4°C° 0 mm 2 m/s 759 mmHg 85%
    15:00 -4°C° 0 mm 2 m/s 759 mmHg 85%
    16:00 -3°C° 0 mm 1 m/s 759 mmHg 86%
    17:00 -4°C° 0 mm 1 m/s 759 mmHg 87%
    18:00 -6°C° 0 mm 1 m/s 759 mmHg 87%
    19:00 -7°C° 0 mm 1 m/s 759 mmHg 88%
    20:00 -8°C° 0 mm 1 m/s 759 mmHg 88%
    21:00 -9°C° 0 mm 2 m/s 759 mmHg 89%
    22:00 -9°C° 0 mm 2 m/s 759 mmHg 89%
    23:00 -10°C° 0 mm 2 m/s 759 mmHg 89%
    Mostrar mais